SCP
0 0 0 0 0 0 0 0 0 0 0 0 0 0 0 0 0 0 0 0 0 0 0 0 0 0 0 0 0 0 0 0 0 0 0 0 0 0 0 0 0 0 0
0 0 0 0 0 0 0 0 0 0 0 0 0 0 0 0 0 0 0 0 0 0 0 0 0 0 0 0 0 0 0 0 0 0 0 0 0 0 0 0 0 0 0
0 0 0 0 0 0 0 0 0 0 0 0 0 0 0 0 0 0 0 0 0 0 0 0 0 0 0 0 0 0 0 0 0 0 0 0 0 0 0 0 0 0 0
0 0 0 0 0 0 0 0 0 0 0 0 0 0 0 0 0 0 0 0 0 0 0 0 0 0 0 0 0 0 0 0 0 0 0 0 0 0 0 0 0 0 0
0 0 0 0 0 0 0 0 0 0 0 0 0 0 0 0 0 0 0 0 0 0 0 0 0 0 0 0 0 0 0 0 0 0 0 0 0 0 0 0 0 0 0
0 0 0 0 0 0 0 0 0 0 0 0 0 0 0 0 0 0 0 0 0 0 0 0 0 0 0 0 0 0 0 0 0 0 0 0 0 0 0 0 0 0 0
0 0 0 0 0 0 0 0 0 0 0 0 0 0 0 0 0 0 0 0 0 0 0 0 0 0 0 0 0 0 0 0 0 0 0 0 0 0 0 0 0 0 0
0 0 0 0 0 0 0 0 0 0 0 0 0 0 0 0 0 0 0 0 0 0 0 0 0 0 0 0 0 0 0 0 0 0 0 0 0 0 0 0 0 0 0
0 0 0 0 0 0 0 0 0 0 0 0 0 0 0 0 0 0 0 0 0 0 0 0 0 0 0 0 0 0 0 0 0 0 0 0 0 0 0 0 0 0 0
0 0 0 0 0 0 0 0 0 0 0 0 0 0 0 0 0 0 0 0 0 0 0 0 0 0 0 0 0 0 0 0 0 0 0 0 0 0 0 0 0 0 0
0 0 0 0 0 0 0 0 0 0 0 0 0 0 0 0 0 0 0 0 0 0 0 0 0 0 0 0 0 0 0 0 0 0 0 0 0 0 0 0 0 0 0
0 0 0 0 0 0 0 0 0 0 0 0 0 0 0 0 0 0 0 0 0 0 0 0 0 0 0 0 0 0 0 0 0 0 0 0 0 0 0 0 0 0 0
0 0 0 0 0 0 0 0 0 0 0 0 0 0 0 0 0 0 0 0 0 0 0 0 0 0 0 0 0 0 0 0 0 0 0 0 0 0 0 0 0 0 0
0 0 0 0 0 0 0 0 0 0 0 0 0 0 0 0 0 0 0 0 0 0 0 0 0 0 0 0 0 0 0 0 0 0 0 0 0 0 0 0 0 0 0
0 0 0 0 0 0 0 0 0 0 0 0 0 0 0 0 0 0 0 0 0 0 0 0 0 0 0 0 0 0 0 0 0 0 0 0 0 0 0 0 0 0 0
0 0 0 0 0 0 0 0 0 0 0 0 0 0 0 0 0 0 0 0 0 0 0 0 0 0 0 0 0 0 0 0 0 0 0 0 0 0 0 0 0 0 0
0 0 0 0 0 0 0 0 0 0 0 0 0 0 0 0 0 0 0 0 0 0 0 0 0 0 0 0 0 0 0 0 0 0 0 0 0 0 0 0 0 0 0
0 0 0 0 0 0 0 0 0 0 0 0 0 0 0 0 0 0 0 0 0 0 0 0 0 0 0 0 0 0 0 0 0 0 0 0 0 0 0 0 0 0 0
0 0 0 0 0 0 0 0 0 0 0 0 0 0 0 0 0 0 0 0 0 0 0 0 0 0 0 0 0 0 0 0 0 0 0 0 0 0 0 0 0 0 0
0 0 0 0 0 0 0 0 0 0 0 0 0 1 1 0 0 0 0 0 0 0 0 0 0 0 0 0 0 0 0 0 0 0 0 0 0 0 0 0 0 0 0
0 0 1 0 0 0 0 0 0 0 0 0 0 1 1 1 1 1 1 0 0 0 0 0 0 0 0 0 0 0 0 0 0 0 0 0 0 0 0 0 0 0 0
0 1 1 1 0 0 0 0 0 0 0 0 0 1 1 1 1 1 1 1 1 0 0 0 0 0 0 0 0 0 0 0 0 0 0 0 0 0 0 0 0 0 0
0 1 1 1 1 0 0 0 0 0 0 0 0 1 1 1 1 1 1 1 1 1 0 0 0 0 0 0 0 0 0 0 0 0 0 0 0 0 0 0 0 0 0
0 0 1 1 1 1 0 0 0 0 0 0 0 0 1 1 1 1 1 1 1 0 0 1 0 0 0 0 0 0 0 0 0 0 0 0 0 0 0 0 0 0 0
0 0 1 1 1 1 1 0 0 0 0 0 0 0 0 0 0 0 0 0 0 0 0 1 1 1 1 1 0 0 0 0 0 0 0 0 0 0 0 0 0 0 0
0 0 1 1 1 1 1 0 0 0 0 0 0 0 0 0 0 0 0 0 0 0 0 1 1 1 1 1 1 1 1 1 0 0 0 0 0 0 0 0 0 0 0
Wind_Speed
9 11 12 12 12 12 11 11 11 11 11 11 11 12 11 11 11 11 12 12 12 12 13 13 13 13 13 13 14 13 13 13 13 13 13 12 12 13 12 11 9 11 13
11 12 12 11 12 12 11 11 11 10 10 11 11 11 11 11 11 11 11 11 11 11 12 12 12 12 12 12 12 12 12 12 12 11 9 10 11 12 12 11 11 9 12
12 12 13 11 12 12 11 11 10 10 10 10 10 10 10 10 10 11 10 10 10 10 11 11 11 10 10 10 10 10 10 10 10 7 4 7 9 10 10 10 10 11 11
12 12 12 12 12 12 11 11 10 10 10 10 10 10 10 10 10 10 9 9 9 9 10 10 9 9 9 9 9 9 9 9 7 2 5 6 7 9 9 9 9 9 9
11 11 11 11 12 12 12 11 10 10 10 10 10 10 9 9 9 9 8 8 8 8 8 8 8 8 8 8 8 8 8 7 4 2 6 5 6 7 8 8 8 8 7
11 11 12 11 12 12 11 11 10 10 10 10 9 9 9 8 8 8 7 7 7 7 7 7 7 6 6 7 6 6 6 5 2 4 4 4 4 6 6 6 6 6 5
11 10 12 10 10 11 11 11 10 9 9 9 9 9 8 8 7 7 7 6 6 6 6 6 5 5 5 5 5 5 5 2 1 3 3 3 4 3 3 4 4 4 4
10 10 10 10 9 9 10 10 9 9 9 9 9 9 8 8 8 7 7 6 6 5 5 5 4 4 3 3 3 4 4 1 0 1 1 1 3 2 1 1 1 2 2
9 9 9 10 10 9 8 8 8 8 7 7 8 7 7 6 6 6 5 6 6 5 5 4 4 3 2 2 2 2 3 1 3 1 1 1 2 3 2 1 2 1 1
9 9 9 10 10 10 10 8 8 7 7 7 6 6 6 5 6 5 5 5 5 5 4 4 3 3 2 1 1 1 2 4 4 2 2 1 3 5 4 3 3 4 3
9 9 9 9 9 9 9 8 9 8 7 7 7 7 7 7 7 6 6 4 4 4 4 4 4 3 3 2 2 1 4 4 4 3 3 1 5 6 6 6 6 6 6
11 11 9 10 10 9 7 7 7 7 8 8 7 8 7 6 5 5 5 4 4 3 4 5 4 5 5 4 4 4 4 5 5 4 3 3 7 8 8 8 8 8 8
11 11 10 10 10 9 7 7 5 5 6 8 9 8 7 6 5 5 4 5 6 6 6 5 6 5 5 4 4 4 5 5 4 4 4 5 8 10 10 10 10 10 10
11 12 11 11 10 10 9 7 7 6 6 6 8 9 7 5 5 5 5 5 5 4 5 5 4 6 6 6 6 6 7 5 5 4 5 6 10 12 12 12 12 12 12
12 12 12 12 12 11 10 7 7 7 7 8 7 8 9 7 7 6 5 5 6 5 6 6 6 6 7 7 7 7 8 8 8 8 5 8 11 13 14 15 14 14 15
13 13 12 13 13 12 10 9 8 8 8 8 8 9 10 8 7 7 7 6 6 6 6 6 7 6 6 6 7 8 9 9 9 9 9 8 11 14 16 16 16 16 16
12 12 12 12 13 13 13 12 9 8 8 8 8 10 11 10 9 8 7 7 7 7 7 6 7 6 6 7 8 9 8 9 9 10 10 9 8 11 15 17 18 18 17
12 12 12 10 12 14 12 11 9 9 9 8 8 8 11 12 11 9 8 8 8 7 6 7 6 6 7 7 7 7 7 8 10 11 10 10 9 8 10 15 17 18 18
11 12 12 12 13 13 13 10 10 9 9 9 8 9 10 12 12 10 8 8 8 7 7 7 7 6 7 7 7 7 8 9 10 10 11 12 11 10 9 9 13 16 18
10 11 11 12 13 12 10 9 8 9 9 9 9 9 11 10 12 11 8 9 8 7 7 7 8 7 7 7 7 8 9 10 9 10 11 10 9 10 10 10 8 9 15
9 10 11 12 12 10 8 8 8 9 9 9 9 11 12 11 12 11 9 9 9 8 9 9 8 8 7 5 5 7 9 10 10 9 8 8 9 9 9 9 8 7 7
10 10 10 11 11 12 10 9 6 7 7 8 8 10 12 12 12 10 11 9 9 9 10 10 9 6 5 6 5 5 6 5 6 7 7 7 8 7 8 9 9 9 8
9 9 8 10 11 12 12 8 6 6 5 6 8 8 11 12 12 11 12 10 10 9 9 10 10 10 7 7 7 6 5 5 5 4 7 7 7 7 7 7 9 9 10
9 8 8 9 9 9 10 10 12 9 9 9 7 7 8 10 11 11 11 11 10 8 9 9 9 9 9 7 6 8 9 7 6 5 4 6 7 8 9 7 8 9 9
8 7 7 7 7 8 9 11 12 11 9 6 6 7 7 7 8 9 9 9 9 8 9 9 9 9 8 9 7 6 8 8 9 8 9 7 6 7 8 8 7 8 8
6 6 6 6 7 7 8 9 11 11 10 8 8 6 6 5 6 8 8 8 8 8 8 8 8 10 9 10 8 7 6 6 7 8 10 10 9 7 7 7 8 8 7
Wind_Direction
153 149 143 147 143 138 133 129 128 125 124 122 121 119 117 113 108 104 104 101 100 98 95 90 85 81 80 80 78 75 73 70 69 69 70 71 71 74 71 64 66 75 72
148 149 145 149 145 141 137 133 131 129 128 126 123 121 118 116 111 107 106 104 104 102 98 93 89 85 84 85 82 79 77 75 72 67 68 80 73 72 70 65 62 75 75
148 150 151 148 145 142 140 139 137 135 132 130 126 122 118 116 115 111 109 108 108 107 103 98 94 90 89 89 86 84 82 80 76 66 62 77 77 72 72 71 71 75 75
151 153 153 143 146 145 144 145 145 142 138 136 132 128 124 120 119 118 116 115 114 112 109 103 99 94 91 92 89 88 86 84 75 41 71 67 73 73 72 72 72 74 74
154 156 147 148 150 150 150 150 150 150 146 142 140 135 132 129 127 125 124 123 122 120 116 110 103 97 94 94 93 93 93 88 81 70 72 70 73 74 74 75 76 76 72
158 159 152 155 156 156 156 156 156 155 152 149 148 145 142 138 138 136 133 130 128 126 123 118 110 102 98 95 95 97 100 102 176 77 70 64 70 73 76 83 85 84 77
161 163 160 160 160 162 164 163 163 163 161 159 159 157 152 150 149 147 145 142 138 135 131 129 122 110 105 99 97 101 107 114 26 73 67 61 59 52 74 89 94 90 83
164 166 164 161 164 167 170 169 169 170 169 168 166 164 162 161 162 160 159 159 154 147 144 144 141 128 117 109 107 114 117 227 203 69 50 54 41 356 69 104 122 106 103
169 172 173 175 175 175 175 174 174 174 172 172 173 168 163 165 170 166 166 172 169 166 162 161 158 150 147 136 123 125 135 265 282 326 321 343 8 311 291 253 226 218 224
178 182 182 183 185 185 184 179 180 180 177 174 172 166 161 161 167 164 180 177 186 184 179 179 179 184 182 168 143 136 176 233 264 269 271 347 316 289 281 270 246 238 239
190 192 192 190 192 192 192 182 187 186 186 183 182 173 182 198 196 189 199 184 198 195 192 196 199 196 195 188 175 199 233 255 271 272 274 331 284 279 275 267 258 251 244
197 198 198 198 197 197 194 193 199 199 196 203 202 195 204 209 209 214 181 201 209 205 209 213 210 203 228 233 201 215 248 263 265 262 262 263 274 274 272 267 260 250 250
201 200 202 203 202 201 199 200 201 203 205 209 210 208 209 211 209 216 210 200 212 215 225 215 220 236 243 253 259 254 262 266 264 265 256 240 266 272 271 267 262 252 250
208 208 205 204 205 207 206 205 206 206 207 211 211 212 212 213 217 218 222 223 222 224 232 237 240 244 249 252 257 262 262 260 262 266 263 240 258 265 268 268 265 258 255
215 214 210 207 207 207 208 210 212 213 213 214 213 213 216 219 220 220 223 224 228 230 231 235 241 246 250 254 254 258 262 263 264 262 259 236 246 257 261 264 264 263 260
220 218 213 211 211 209 209 211 212 215 216 219 217 216 216 222 225 223 225 225 229 230 234 239 244 247 250 252 255 256 259 262 260 261 264 253 237 247 255 260 262 263 262
225 222 218 214 212 212 214 215 215 215 215 217 219 220 218 221 227 227 230 228 228 228 232 237 244 248 253 254 257 257 256 257 260 260 261 262 255 239 243 253 258 260 261
229 225 221 214 215 215 216 216 216 218 217 219 219 219 219 220 224 227 231 233 230 227 227 230 235 239 246 252 258 261 258 257 257 258 258 256 256 255 243 241 250 255 258
231 228 224 218 219 217 217 218 219 220 221 221 220 219 219 219 219 222 230 234 230 226 229 230 233 235 246 250 256 262 263 261 260 257 255 255 253 253 255 243 237 247 254
233 231 228 223 222 218 216 218 221 224 225 224 223 223 221 218 217 220 227 231 228 227 229 228 234 233 243 254 261 264 265 262 259 257 256 253 249 248 248 251 245 238 241
231 229 228 226 221 213 208 209 214 221 221 222 223 225 225 223 219 219 223 226 223 226 231 230 229 236 239 237 255 270 266 255 253 251 250 249 245 243 242 244 246 249 243
232 230 229 227 223 214 211 208 213 217 221 222 220 224 226 224 223 222 225 226 223 226 231 230 224 229 231 213 230 269 285 271 232 239 243 243 247 243 240 241 243 243 248
235 233 230 229 226 220 216 211 210 214 221 219 223 224 224 224 224 223 227 229 228 226 230 228 223 227 235 222 217 233 259 273 300 244 235 239 240 241 246 246 245 247 245
241 239 235 232 228 223 214 211 209 212 218 221 220 220 220 219 223 224 228 230 232 230 234 233 228 228 233 236 221 225 241 264 273 285 248 240 243 249 253 250 249 250 248
247 241 236 230 226 220 212 212 214 221 227 226 219 220 218 215 219 223 225 228 231 233 236 236 233 231 230 237 235 225 233 242 244 258 275 274 262 251 252 256 257 256 252
250 241 234 227 225 218 211 211 213 218 221 221 220 219 219 217 217 220 224 228 232 235 237 239 239 238 237 239 241 236 232 235 236 241 257 270 274 271 263 254 252 253 255